Tracking 30743 objects as of 21-Jun-2025
HD Live streaming from Space Station
objects crossing your sky now

ATLAS 28E DEB

Track ATLAS 28E DEB now!
10-day predictions


NORAD ID: 20575
Int'l Code: 1990-031G
Perigee: 562.9 km
Apogee: 595.6 km
Inclination: 90.4 °
Period: 96.1 minutes
Semi major axis: 6950 km
RCS: Unknown
Launch date: April 11, 1990
Source: United States (US)
Launch site: AIR FORCE WESTERN TEST RANGE (AFWTR)

Note: This is SATELLITE DEBRIS
Your satellite tracking list
Your tracking list is empty




NASA's NSSDC Master Catalog

Two Line Element Set (TLE):
1 20575U 90031G   25171.57695484  .00003231  00000-0  26885-3 0  9997
2 20575  90.3580 282.0097 0023519 285.2036  74.6597 14.98317450340883
Source of the keplerian elements: AFSPC